GFSFLT2_prec_kuchsnow_177.txt.gz
Snowfall_Accumulation
0.1 0.5 0.3 0.0 0.0 0.0 0.0 0.0 0.0 0.0 0.0 0.0 0.0 0.0 0.0 0.0 0.0 0.0 0.0 0.0 0.0 0.0 0.0 0.0 0.0 0.0 0.0
0.6 0.3 0.1 0.0 0.0 0.0 0.0 0.1 0.0 0.0 0.0 0.0 0.0 0.0 0.0 0.0 0.0 0.0 0.0 0.0 0.0 0.0 0.0 0.0 0.0 0.0 0.0
0.2 0.0 0.0 0.6 0.0 0.0 0.0 0.0 0.0 0.0 0.0 0.0 0.0 0.0 0.0 0.0 0.0 0.0 0.0 0.0 0.0 0.0 0.0 0.0 0.0 0.0 0.0
0.4 0.7 0.3 0.0 0.2 0.0 0.0 0.0 0.0 0.0 0.0 0.0 0.0 0.0 0.0 0.0 0.0 0.0 0.0 0.0 0.0 0.0 0.0 0.0 0.0 0.0 0.0
2.2 2.2 0.1 0.0 0.0 0.0 0.0 0.0 0.2 0.0 0.0 0.0 0.0 0.0 0.0 0.0 0.0 0.0 0.0 0.0 0.0 0.0 0.0 0.0 0.0 0.0 0.0
3.0 0.5 0.0 0.0 0.0 0.1 2.0 2.1 1.7 0.0 0.0 0.1 0.0 0.0 0.0 0.0 0.0 0.0 0.0 0.0 0.0 0.0 0.0 0.0 0.0 0.0 0.0
0.3 0.2 0.3 0.1 3.0 3.6 1.4 2.1 1.2 0.0 0.2 0.4 0.0 0.0 0.0 0.0 0.0 0.0 0.0 0.0 0.0 0.0 0.0 0.0 0.0 0.0 0.0
0.0 0.2 0.7 0.2 0.3 0.7 1.0 1.1 0.5 0.0 0.0 2.4 0.0 0.1 0.0 0.0 0.0 0.0 0.0 0.0 0.0 0.0 0.0 0.0 0.0 0.0 0.0
0.2 0.1 0.0 0.0 0.0 1.6 3.3 3.8 2.4 0.1 0.0 1.2 0.4 0.2 0.0 0.0 0.0 0.0 0.0 0.0 0.0 0.0 0.0 0.0 0.0 0.0 0.0
0.0 0.0 0.0 0.0 0.0 0.2 4.0 12.0 5.7 3.7 0.0 4.4 1.2 1.2 5.6 0.0 0.0 0.0 0.0 0.0 0.0 0.0 0.0 0.1 0.0 0.4 0.8
0.0 0.0 0.0 0.0 0.1 0.1 1.6 9.9 15.4 9.4 0.0 8.8 10.8 2.3 8.1 3.6 2.5 2.5 1.7 1.1 1.5 2.0 1.9 1.2 0.9 1.0 3.0
0.1 0.2 0.2 0.3 0.2 0.3 0.4 1.7 3.6 8.9 3.2 4.6 19.0 7.0 12.6 8.9 5.3 5.9 4.4 5.3 7.5 8.0 9.3 2.5 1.0 0.6 0.4
1.1 0.5 0.2 0.1 0.4 0.6 0.8 1.3 2.0 2.9 3.8 4.1 9.5 9.8 13.0 12.7 8.0 5.3 7.5 6.9 6.5 7.7 6.4 6.5 5.0 3.2 2.4
2.5 0.7 0.1 0.5 0.8 1.4 4.7 3.4 5.4 3.3 3.9 4.8 7.0 9.2 11.3 7.1 8.5 7.5 7.3 11.8 8.5 7.3 5.9 6.7 2.0 1.4 0.7
2.3 2.2 0.9 0.7 2.8 3.1 5.8 9.3 12.7 7.9 8.0 6.8 5.4 3.5 4.3 6.5 8.2 6.5 7.6 7.9 9.4 8.4 6.1 8.8 5.4 1.1 0.3
2.9 2.1 5.5 5.3 7.2 7.7 9.6 12.3 12.8 9.9 10.7 9.4 7.8 7.3 6.5 6.1 5.5 10.9 8.7 9.5 9.6 7.0 5.2 7.6 8.3 3.8 0.1
5.2 6.0 8.5 7.4 7.3 9.2 9.9 10.5 10.9 8.7 7.4 5.8 7.9 11.2 13.7 7.4 5.1 4.3 14.8 11.2 7.8 6.7 3.7 4.0 6.8 5.3 0.1

GFSFLT2_prec_kuchsnow_180.txt.gz
Snowfall_Accumulation
0.1 0.5 0.3 0.0 0.0 0.0 0.0 0.0 0.0 0.0 0.0 0.0 0.0 0.0 0.0 0.0 0.0 0.0 0.0 0.0 0.0 0.0 0.0 0.0 0.0 0.0 0.0
0.6 0.3 0.1 0.0 0.0 0.0 0.0 0.1 0.0 0.0 0.0 0.0 0.0 0.0 0.0 0.0 0.0 0.0 0.0 0.0 0.0 0.0 0.0 0.0 0.0 0.0 0.0
0.2 0.0 0.0 0.6 0.0 0.0 0.0 0.0 0.0 0.0 0.0 0.0 0.0 0.0 0.0 0.0 0.0 0.0 0.0 0.0 0.0 0.0 0.0 0.0 0.0 0.0 0.0
0.4 0.7 0.3 0.0 0.2 0.0 0.0 0.0 0.0 0.0 0.0 0.0 0.0 0.0 0.0 0.0 0.0 0.0 0.0 0.0 0.0 0.0 0.0 0.0 0.0 0.0 0.0
2.2 2.2 0.1 0.0 0.0 0.0 0.0 0.0 0.2 0.0 0.0 0.0 0.0 0.0 0.0 0.0 0.0 0.0 0.0 0.0 0.0 0.0 0.0 0.0 0.0 0.0 0.0
3.0 0.5 0.0 0.0 0.0 0.1 2.0 2.1 1.7 0.0 0.0 0.1 0.0 0.0 0.0 0.0 0.0 0.0 0.0 0.0 0.0 0.0 0.0 0.0 0.0 0.0 0.0
0.3 0.2 0.3 0.1 3.0 3.6 1.4 2.1 1.2 0.0 0.2 0.4 0.0 0.0 0.0 0.0 0.0 0.0 0.0 0.0 0.0 0.0 0.0 0.0 0.0 0.0 0.0
0.0 0.2 0.7 0.2 0.3 0.7 1.0 1.1 0.5 0.0 0.0 2.4 0.0 0.1 0.0 0.0 0.0 0.0 0.0 0.0 0.0 0.0 0.0 0.0 0.0 0.0 0.0
0.2 0.1 0.0 0.0 0.0 1.6 3.3 3.8 2.4 0.1 0.0 1.2 0.4 0.2 0.0 0.0 0.0 0.0 0.0 0.0 0.0 0.0 0.0 0.0 0.0 0.0 0.0
0.0 0.0 0.0 0.0 0.0 0.2 4.0 12.0 5.7 3.7 0.0 4.4 1.2 1.2 5.6 0.0 0.0 0.0 0.0 0.0 0.0 0.0 0.0 0.1 0.0 0.4 0.8
0.0 0.0 0.0 0.0 0.1 0.1 1.6 9.9 15.4 9.4 0.0 8.8 10.8 2.3 8.1 3.6 2.5 2.5 1.7 1.1 1.5 2.0 1.9 1.2 0.9 1.0 3.0
0.1 0.2 0.2 0.3 0.2 0.3 0.4 1.7 3.6 8.9 3.2 4.6 19.0 7.0 12.6 8.9 5.3 5.9 4.4 5.3 7.5 8.0 9.3 2.5 1.0 0.6 0.4
1.1 0.5 0.2 0.1 0.4 0.6 0.8 1.3 2.0 2.9 3.8 4.1 9.5 9.8 13.0 12.7 8.0 5.3 7.5 6.9 6.5 7.7 6.4 6.5 5.0 3.2 2.4
2.5 0.7 0.1 0.5 0.8 1.4 4.7 3.4 5.4 3.3 3.9 4.8 7.0 9.2 11.3 7.1 8.5 7.5 7.3 11.8 8.5 7.3 5.9 6.7 2.0 1.4 0.7
2.3 2.2 0.9 0.7 2.8 3.1 5.8 9.3 12.7 7.9 8.0 6.8 5.4 3.5 4.3 6.5 8.2 6.5 7.6 7.9 9.4 8.4 6.1 8.8 5.4 1.1 0.3
2.9 2.1 5.5 5.3 7.2 7.7 9.6 12.3 12.8 9.9 10.7 9.4 7.8 7.3 6.5 6.5 5.9 11.3 9.2 9.8 9.9 7.2 5.3 7.6 8.3 3.8 0.1
5.3 6.0 8.5 7.4 7.3 9.2 9.9 10.5 10.9 8.7 7.4 5.8 7.9 11.2 13.7 7.4 5.9 4.9 15.6 11.8 8.2 6.9 3.7 4.0 6.9 5.3 0.1

GFSFLT2_prec_kuchsnow_186.txt.gz
Snowfall_Accumulation
0.1 0.5 0.3 0.0 0.0 0.0 0.0 0.0 0.0 0.0 0.0 0.0 0.0 0.0 0.0 0.0 0.0 0.0 0.0 0.0 0.0 0.0 0.0 0.0 0.0 0.0 0.0
0.6 0.3 0.1 0.0 0.0 0.0 0.0 0.1 0.0 0.0 0.0 0.0 0.0 0.0 0.0 0.0 0.0 0.0 0.0 0.0 0.0 0.0 0.0 0.0 0.0 0.0 0.0
0.2 0.0 0.0 0.6 0.0 0.0 0.0 0.0 0.0 0.0 0.0 0.0 0.0 0.0 0.0 0.0 0.0 0.0 0.0 0.0 0.0 0.0 0.0 0.0 0.0 0.0 0.0
0.4 0.7 0.3 0.0 0.2 0.0 0.0 0.0 0.0 0.0 0.0 0.0 0.0 0.0 0.0 0.0 0.0 0.0 0.0 0.0 0.0 0.0 0.0 0.0 0.0 0.0 0.0
2.2 2.2 0.1 0.0 0.0 0.0 0.0 0.0 0.2 0.0 0.0 0.0 0.0 0.0 0.0 0.0 0.0 0.0 0.0 0.0 0.0 0.0 0.0 0.0 0.0 0.0 0.0
3.0 0.5 0.0 0.0 0.0 0.1 2.0 2.1 1.7 0.0 0.0 0.1 0.0 0.0 0.0 0.0 0.0 0.0 0.0 0.0 0.0 0.0 0.0 0.0 0.0 0.0 0.0
0.3 0.2 0.3 0.1 3.0 3.6 1.4 2.1 1.2 0.0 0.2 0.4 0.0 0.0 0.0 0.0 0.0 0.0 0.0 0.0 0.0 0.0 0.0 0.0 0.0 0.0 0.0
0.0 0.2 0.7 0.2 0.3 0.7 1.0 1.1 0.5 0.0 0.0 2.4 0.0 0.1 0.0 0.0 0.0 0.0 0.0 0.0 0.0 0.0 0.0 0.0 0.0 0.0 0.0
0.2 0.1 0.0 0.0 0.0 1.6 3.3 3.8 2.4 0.1 0.0 1.2 0.4 0.2 0.0 0.0 0.0 0.0 0.0 0.0 0.0 0.0 0.0 0.0 0.0 0.0 0.0
0.0 0.0 0.0 0.0 0.0 0.2 4.0 12.0 5.7 3.7 0.0 4.4 1.2 1.2 5.6 0.0 0.0 0.0 0.0 0.0 0.0 0.0 0.0 0.1 0.0 0.4 0.8
0.0 0.0 0.0 0.0 0.1 0.1 1.6 9.9 15.4 9.4 0.0 8.8 10.8 2.3 8.1 3.6 2.5 2.5 1.7 1.1 1.5 2.0 1.9 1.2 0.9 1.0 3.0
0.1 0.2 0.2 0.3 0.2 0.3 0.4 1.7 3.6 8.9 3.2 4.6 19.0 7.0 12.6 8.9 5.3 5.9 4.4 5.3 7.5 8.0 9.3 2.5 1.0 0.6 0.4
1.1 0.5 0.2 0.1 0.4 0.6 0.8 1.3 2.0 2.9 3.8 4.1 9.5 9.8 13.0 12.7 8.0 5.3 7.5 6.9 6.5 7.7 6.4 6.5 5.0 3.2 2.4
2.5 0.7 0.1 0.5 0.8 1.4 4.7 3.4 5.4 3.3 3.9 4.8 7.0 9.2 11.3 7.1 8.5 7.5 7.3 11.8 8.5 7.3 5.9 6.7 2.0 1.4 0.7
2.3 2.2 0.9 0.7 2.8 3.1 5.8 9.3 12.8 7.9 8.0 6.8 5.4 3.5 4.3 6.5 8.2 6.5 7.6 7.9 9.4 8.4 6.1 8.8 5.4 1.1 0.3
2.9 2.1 5.5 5.3 7.2 7.7 9.6 12.4 12.9 9.9 10.7 9.4 7.8 7.3 6.7 6.5 6.1 11.5 9.4 10.4 10.4 7.5 5.6 7.6 8.3 3.8 0.1
5.3 6.0 8.5 7.5 7.8 9.2 10.0 10.6 10.9 8.7 7.4 5.8 7.9 11.2 13.9 7.5 6.2 5.5 16.3 12.8 9.5 8.2 4.9 4.9 7.3 5.7 0.2

GFSFLT2_prec_kuchsnow_189.txt.gz
Snowfall_Accumulation
0.1 0.5 0.3 0.0 0.0 0.0 0.0 0.0 0.0 0.0 0.0 0.0 0.0 0.0 0.0 0.0 0.0 0.0 0.0 0.0 0.0 0.0 0.0 0.0 0.0 0.0 0.0
0.6 0.3 0.1 0.0 0.0 0.0 0.0 0.1 0.0 0.0 0.0 0.0 0.0 0.0 0.0 0.0 0.0 0.0 0.0 0.0 0.0 0.0 0.0 0.0 0.0 0.0 0.0
0.2 0.0 0.0 0.6 0.0 0.0 0.0 0.0 0.0 0.0 0.0 0.0 0.0 0.0 0.0 0.0 0.0 0.0 0.0 0.0 0.0 0.0 0.0 0.0 0.0 0.0 0.0
0.4 0.7 0.3 0.0 0.2 0.0 0.0 0.0 0.0 0.0 0.0 0.0 0.0 0.0 0.0 0.0 0.0 0.0 0.0 0.0 0.0 0.0 0.0 0.0 0.0 0.0 0.0
2.2 2.2 0.1 0.0 0.0 0.0 0.0 0.0 0.2 0.0 0.0 0.0 0.0 0.0 0.0 0.0 0.0 0.0 0.0 0.0 0.0 0.0 0.0 0.0 0.0 0.0 0.0
3.0 0.5 0.0 0.0 0.0 0.1 2.0 2.1 1.7 0.0 0.0 0.1 0.0 0.0 0.0 0.0 0.0 0.0 0.0 0.0 0.0 0.0 0.0 0.0 0.0 0.0 0.0
0.3 0.2 0.3 0.1 3.0 3.6 1.4 2.1 1.2 0.0 0.2 0.4 0.0 0.0 0.0 0.0 0.0 0.0 0.0 0.0 0.0 0.0 0.0 0.0 0.0 0.0 0.0
0.0 0.2 0.7 0.2 0.3 0.7 1.0 1.1 0.5 0.0 0.0 2.4 0.0 0.1 0.0 0.0 0.0 0.0 0.0 0.0 0.0 0.0 0.0 0.0 0.0 0.0 0.0
0.2 0.1 0.0 0.0 0.0 1.6 3.3 3.8 2.4 0.1 0.0 1.2 0.4 0.2 0.0 0.0 0.0 0.0 0.0 0.0 0.0 0.0 0.0 0.0 0.0 0.0 0.0
0.0 0.0 0.0 0.0 0.0 0.2 4.0 12.0 5.7 3.7 0.0 4.4 1.2 1.2 5.6 0.0 0.0 0.0 0.0 0.0 0.0 0.0 0.0 0.1 0.0 0.4 0.8
0.0 0.0 0.0 0.0 0.1 0.1 1.6 9.9 15.4 9.4 0.0 8.8 10.8 2.3 8.1 3.6 2.5 2.5 1.7 1.1 1.5 2.0 1.9 1.2 0.9 1.0 3.0
0.1 0.2 0.2 0.3 0.2 0.3 0.4 1.7 3.6 8.9 3.2 4.6 19.0 7.0 12.6 8.9 5.3 5.9 4.4 5.3 7.5 8.0 9.3 2.5 1.0 0.6 0.4
1.1 0.5 0.2 0.1 0.4 0.6 0.8 1.3 2.0 2.9 3.8 4.1 9.5 9.8 13.0 12.7 8.0 5.3 7.5 6.9 6.5 7.7 6.4 6.5 5.0 3.2 2.4
2.5 0.7 0.1 0.5 0.8 1.4 4.7 3.4 5.4 3.3 3.9 4.8 7.0 9.2 11.3 7.1 8.5 7.5 7.3 11.8 8.5 7.3 5.9 6.7 2.0 1.4 0.7
2.3 2.2 0.9 0.7 2.8 3.1 5.8 9.3 12.8 7.9 8.0 6.8 5.4 3.5 4.3 6.5 8.2 6.5 7.6 7.9 9.4 8.4 6.1 8.8 5.4 1.1 0.3
2.9 2.1 5.5 5.3 7.2 7.7 9.6 12.7 13.1 10.0 10.7 9.4 7.8 7.3 6.7 6.5 6.1 11.5 9.4 10.4 10.4 7.8 5.9 8.0 8.3 3.8 0.1
5.3 6.0 8.5 7.5 8.0 9.3 10.2 11.1 11.5 8.9 7.5 5.9 8.0 11.2 13.9 7.5 6.2 5.5 16.3 12.8 9.5 8.6 5.4 5.4 7.8 6.3 0.6

GFSFLT2_prec_kuchsnow_192.txt.gz
Snowfall_Accumulation
0.1 0.5 0.3 0.0 0.0 0.0 0.0 0.0 0.0 0.0 0.0 0.0 0.0 0.0 0.0 0.0 0.0 0.0 0.0 0.0 0.0 0.0 0.0 0.0 0.0 0.0 0.0
0.6 0.3 0.1 0.0 0.0 0.0 0.0 0.1 0.0 0.0 0.0 0.0 0.0 0.0 0.0 0.0 0.0 0.0 0.0 0.0 0.0 0.0 0.0 0.0 0.0 0.0 0.0
0.2 0.0 0.0 0.6 0.0 0.0 0.0 0.0 0.0 0.0 0.0 0.0 0.0 0.0 0.0 0.0 0.0 0.0 0.0 0.0 0.0 0.0 0.0 0.0 0.0 0.0 0.0
0.4 0.7 0.3 0.0 0.2 0.0 0.0 0.0 0.0 0.0 0.0 0.0 0.0 0.0 0.0 0.0 0.0 0.0 0.0 0.0 0.0 0.0 0.0 0.0 0.0 0.0 0.0
2.2 2.2 0.1 0.0 0.0 0.0 0.0 0.0 0.2 0.0 0.0 0.0 0.0 0.0 0.0 0.0 0.0 0.0 0.0 0.0 0.0 0.0 0.0 0.0 0.0 0.0 0.0
3.0 0.5 0.0 0.0 0.0 0.1 2.0 2.1 1.7 0.0 0.0 0.1 0.0 0.0 0.0 0.0 0.0 0.0 0.0 0.0 0.0 0.0 0.0 0.0 0.0 0.0 0.0
0.3 0.2 0.3 0.1 3.0 3.6 1.4 2.1 1.2 0.0 0.2 0.4 0.0 0.0 0.0 0.0 0.0 0.0 0.0 0.0 0.0 0.0 0.0 0.0 0.0 0.0 0.0
0.0 0.2 0.7 0.2 0.3 0.7 1.0 1.1 0.5 0.0 0.0 2.4 0.0 0.1 0.0 0.0 0.0 0.0 0.0 0.0 0.0 0.0 0.0 0.0 0.0 0.0 0.0
0.2 0.1 0.0 0.0 0.0 1.6 3.3 3.8 2.4 0.1 0.0 1.2 0.4 0.2 0.0 0.0 0.0 0.0 0.0 0.0 0.0 0.0 0.0 0.0 0.0 0.0 0.0
0.0 0.0 0.0 0.0 0.0 0.2 4.0 12.0 5.7 3.7 0.0 4.4 1.2 1.2 5.6 0.0 0.0 0.0 0.0 0.0 0.0 0.0 0.0 0.1 0.0 0.4 0.8
0.0 0.0 0.0 0.0 0.1 0.1 1.6 9.9 15.4 9.4 0.0 8.8 10.8 2.3 8.1 3.6 2.5 2.5 1.7 1.1 1.5 2.0 1.9 1.2 0.9 1.0 3.0
0.1 0.2 0.2 0.3 0.2 0.3 0.4 1.7 3.6 8.9 3.2 4.6 19.0 7.0 12.6 8.9 5.3 5.9 4.4 5.3 7.5 8.0 9.3 2.5 1.0 0.6 0.4
1.1 0.5 0.2 0.1 0.4 0.6 0.8 1.3 2.0 2.9 3.8 4.1 9.5 9.8 13.0 12.7 8.0 5.3 7.5 6.9 6.5 7.7 6.4 6.5 5.0 3.2 2.4
2.5 0.7 0.1 0.5 0.8 1.4 4.7 3.4 5.4 3.3 3.9 4.8 7.0 9.2 11.3 7.1 8.5 7.5 7.3 11.8 8.5 7.3 5.9 6.7 2.0 1.4 0.7
2.3 2.2 0.9 0.7 2.8 3.1 5.8 9.3 13.0 8.1 8.2 6.8 5.4 3.5 4.3 6.5 8.2 6.5 7.6 7.9 9.4 8.4 6.1 8.8 5.4 1.1 0.3
2.9 2.1 5.5 5.3 7.2 7.7 9.6 12.7 13.4 10.0 10.8 9.4 8.3 7.8 7.1 6.6 6.1 11.5 9.4 10.4 10.4 7.8 5.9 8.0 8.3 3.8 0.1
5.3 6.0 8.5 7.5 8.1 9.4 10.2 11.1 11.6 8.9 7.7 6.1 8.6 11.7 14.3 7.7 6.2 5.5 16.3 12.8 9.5 8.6 5.4 5.4 8.1 6.6 0.6

GFSFLT2_prec_kuchsnow_195.txt.gz
Snowfall_Accumulation
0.1 0.5 0.3 0.0 0.0 0.0 0.0 0.0 0.0 0.0 0.0 0.0 0.0 0.0 0.0 0.0 0.0 0.0 0.0 0.0 0.0 0.0 0.0 0.0 0.0 0.0 0.0
0.6 0.3 0.1 0.0 0.0 0.0 0.0 0.1 0.0 0.0 0.0 0.0 0.0 0.0 0.0 0.0 0.0 0.0 0.0 0.0 0.0 0.0 0.0 0.0 0.0 0.0 0.0
0.2 0.0 0.0 0.6 0.0 0.0 0.0 0.0 0.0 0.0 0.0 0.0 0.0 0.0 0.0 0.0 0.0 0.0 0.0 0.0 0.0 0.0 0.0 0.0 0.0 0.0 0.0
0.4 0.7 0.3 0.0 0.2 0.0 0.0 0.0 0.0 0.0 0.0 0.0 0.0 0.0 0.0 0.0 0.0 0.0 0.0 0.0 0.0 0.0 0.0 0.0 0.0 0.0 0.0
2.2 2.2 0.1 0.0 0.0 0.0 0.0 0.0 0.2 0.0 0.0 0.0 0.0 0.0 0.0 0.0 0.0 0.0 0.0 0.0 0.0 0.0 0.0 0.0 0.0 0.0 0.0
3.0 0.5 0.0 0.0 0.0 0.1 2.0 2.1 1.7 0.0 0.0 0.1 0.0 0.0 0.0 0.0 0.0 0.0 0.0 0.0 0.0 0.0 0.0 0.0 0.0 0.0 0.0
0.3 0.2 0.3 0.1 3.0 3.6 1.4 2.1 1.2 0.0 0.2 0.4 0.0 0.0 0.0 0.0 0.0 0.0 0.0 0.0 0.0 0.0 0.0 0.0 0.0 0.0 0.0
0.0 0.2 0.7 0.2 0.3 0.7 1.0 1.1 0.5 0.0 0.0 2.4 0.0 0.1 0.0 0.0 0.0 0.0 0.0 0.0 0.0 0.0 0.0 0.0 0.0 0.0 0.0
0.2 0.1 0.0 0.0 0.0 1.6 3.3 3.8 2.4 0.1 0.0 1.2 0.4 0.2 0.0 0.0 0.0 0.0 0.0 0.0 0.0 0.0 0.0 0.0 0.0 0.0 0.0
0.0 0.0 0.0 0.0 0.0 0.2 4.0 12.1 5.7 3.7 0.0 4.4 1.2 1.2 5.6 0.0 0.0 0.0 0.0 0.0 0.0 0.0 0.0 0.1 0.0 0.4 0.8
0.0 0.0 0.0 0.0 0.1 0.1 1.6 9.9 15.4 9.4 0.0 8.8 10.8 2.3 8.1 3.6 2.5 2.5 1.7 1.1 1.5 2.0 1.9 1.2 0.9 1.0 3.0
0.1 0.2 0.2 0.3 0.2 0.3 0.4 1.7 3.6 8.9 3.2 4.6 19.0 7.0 12.6 8.9 5.3 5.9 4.4 5.3 7.5 8.0 9.3 2.5 1.0 0.6 0.4
1.1 0.5 0.2 0.1 0.4 0.6 0.8 1.3 2.0 2.9 3.8 4.1 9.5 9.8 13.0 12.7 8.0 5.3 7.5 6.9 6.5 7.7 6.4 6.5 5.0 3.2 2.4
2.5 0.7 0.1 0.5 0.8 1.4 4.7 3.4 5.4 3.3 3.9 4.8 7.0 9.2 11.3 7.1 8.5 7.5 7.3 11.8 8.5 7.3 5.9 6.7 2.0 1.4 0.7
2.3 2.2 0.9 0.7 2.8 3.1 5.8 9.3 13.0 8.1 8.2 6.8 5.4 3.5 4.3 6.5 8.2 6.5 7.6 7.9 9.4 8.4 6.1 8.8 5.4 1.1 0.3
2.9 2.1 5.5 5.3 7.2 7.7 9.6 12.7 13.4 10.0 10.8 9.4 8.5 8.5 7.8 6.9 6.1 11.5 9.4 10.4 10.4 7.8 5.9 8.0 8.3 3.8 0.1
5.3 6.0 8.5 7.5 8.1 9.4 10.2 11.1 11.7 8.9 7.7 6.1 8.7 12.2 15.1 8.1 6.2 5.5 16.3 12.8 9.5 8.6 5.4 5.4 8.1 6.6 0.6

GFSFLT2_prec_kuchsnow_198.txt.gz
Snowfall_Accumulation
0.1 0.5 0.3 0.0 0.0 0.0 0.0 0.0 0.0 0.0 0.0 0.0 0.0 0.0 0.0 0.0 0.0 0.0 0.0 0.0 0.0 0.0 0.0 0.0 0.0 0.0 0.0
0.6 0.3 0.1 0.0 0.0 0.0 0.0 0.1 0.0 0.0 0.0 0.0 0.0 0.0 0.0 0.0 0.0 0.0 0.0 0.0 0.0 0.0 0.0 0.0 0.0 0.0 0.0
0.2 0.0 0.0 0.6 0.0 0.0 0.0 0.0 0.0 0.0 0.0 0.0 0.0 0.0 0.0 0.0 0.0 0.0 0.0 0.0 0.0 0.0 0.0 0.0 0.0 0.0 0.0
0.4 0.7 0.3 0.0 0.2 0.0 0.0 0.0 0.0 0.0 0.0 0.0 0.0 0.0 0.0 0.0 0.0 0.0 0.0 0.0 0.0 0.0 0.0 0.0 0.0 0.0 0.0
2.2 2.2 0.1 0.0 0.0 0.0 0.0 0.0 0.2 0.0 0.0 0.0 0.0 0.0 0.0 0.0 0.0 0.0 0.0 0.0 0.0 0.0 0.0 0.0 0.0 0.0 0.0
3.0 0.5 0.0 0.0 0.0 0.1 2.0 2.1 1.7 0.0 0.0 0.1 0.0 0.0 0.0 0.0 0.0 0.0 0.0 0.0 0.0 0.0 0.0 0.0 0.0 0.0 0.0
0.3 0.2 0.3 0.1 3.0 3.6 1.4 2.1 1.2 0.0 0.2 0.4 0.0 0.0 0.0 0.0 0.0 0.0 0.0 0.0 0.0 0.0 0.0 0.0 0.0 0.0 0.0
0.0 0.2 0.7 0.2 0.3 0.7 1.0 1.1 0.5 0.0 0.0 2.4 0.0 0.1 0.0 0.0 0.0 0.0 0.0 0.0 0.0 0.0 0.0 0.0 0.0 0.0 0.0
0.2 0.1 0.0 0.0 0.0 1.6 3.3 3.8 2.4 0.1 0.0 1.2 0.4 0.2 0.0 0.0 0.0 0.0 0.0 0.0 0.0 0.0 0.0 0.0 0.0 0.0 0.0
0.0 0.0 0.0 0.0 0.0 0.2 4.0 12.1 5.7 3.7 0.0 4.4 1.2 1.2 5.6 0.0 0.0 0.0 0.0 0.0 0.0 0.0 0.0 0.1 0.0 0.4 0.8
0.0 0.0 0.0 0.0 0.1 0.1 1.6 9.9 15.4 9.4 0.0 8.8 10.8 2.3 8.1 3.6 2.5 2.5 1.7 1.1 1.5 2.0 1.9 1.2 0.9 1.0 3.0
0.2 0.2 0.2 0.3 0.2 0.3 0.4 1.7 3.6 8.9 3.2 4.6 19.0 7.0 12.6 9.1 5.3 5.9 4.4 5.3 7.5 8.0 9.3 2.5 1.0 0.6 0.4
1.1 0.5 0.2 0.1 0.4 0.6 0.8 1.3 2.0 2.9 3.8 4.1 9.5 9.8 13.0 12.7 8.0 5.3 7.5 6.9 6.5 7.7 6.4 6.5 5.0 3.2 2.4
2.5 0.7 0.1 0.5 0.8 1.4 4.7 3.4 5.4 3.3 3.9 4.8 7.0 9.2 11.3 7.1 8.5 7.5 7.3 11.8 8.5 7.3 5.9 6.7 2.0 1.4 0.7
2.3 2.2 0.9 0.7 2.8 3.1 5.8 9.3 13.0 8.1 8.2 6.8 5.4 3.5 4.3 6.5 8.4 6.5 7.6 7.9 9.4 8.4 6.1 8.8 5.4 1.1 0.3
2.9 2.1 5.5 5.3 7.2 7.7 9.6 12.7 13.4 10.0 10.8 9.4 8.5 8.5 7.8 6.9 6.1 11.5 9.4 10.4 10.4 7.8 5.9 8.0 8.3 3.8 0.1
5.3 6.0 8.5 7.5 8.1 9.4 10.2 11.1 11.7 8.9 7.7 6.1 8.7 12.2 15.1 8.4 6.2 5.5 16.3 12.8 9.5 8.7 5.5 5.4 8.1 6.6 0.6

GFSFLT2_prec_kuchsnow_201.txt.gz
Snowfall_Accumulation
0.1 0.5 0.3 0.0 0.0 0.0 0.0 0.0 0.0 0.0 0.0 0.0 0.0 0.0 0.0 0.0 0.0 0.0 0.0 0.0 0.0 0.0 0.0 0.0 0.0 0.0 0.0
0.6 0.3 0.1 0.0 0.0 0.0 0.0 0.1 0.0 0.0 0.0 0.0 0.0 0.0 0.0 0.0 0.0 0.0 0.0 0.0 0.0 0.0 0.0 0.0 0.0 0.0 0.0
0.2 0.0 0.0 0.6 0.0 0.0 0.0 0.0 0.0 0.0 0.0 0.0 0.0 0.0 0.0 0.0 0.0 0.0 0.0 0.0 0.0 0.0 0.0 0.0 0.0 0.0 0.0
0.4 0.7 0.3 0.0 0.2 0.0 0.0 0.0 0.0 0.0 0.0 0.0 0.0 0.0 0.0 0.0 0.0 0.0 0.0 0.0 0.0 0.0 0.0 0.0 0.0 0.0 0.0
2.2 2.2 0.1 0.0 0.0 0.0 0.0 0.0 0.2 0.0 0.0 0.0 0.0 0.0 0.0 0.0 0.0 0.0 0.0 0.0 0.0 0.0 0.0 0.0 0.0 0.0 0.0
3.0 0.5 0.0 0.0 0.0 0.1 2.0 2.1 1.7 0.0 0.0 0.1 0.0 0.0 0.0 0.0 0.0 0.0 0.0 0.0 0.0 0.0 0.0 0.0 0.0 0.0 0.0
0.3 0.2 0.3 0.1 3.0 3.6 1.4 2.1 1.2 0.0 0.2 0.4 0.0 0.0 0.0 0.0 0.0 0.0 0.0 0.0 0.0 0.0 0.0 0.0 0.0 0.0 0.0
0.0 0.2 0.7 0.2 0.3 0.7 1.0 1.1 0.5 0.0 0.0 2.4 0.0 0.1 0.0 0.0 0.0 0.0 0.0 0.0 0.0 0.0 0.0 0.0 0.0 0.0 0.0
0.2 0.1 0.0 0.0 0.0 1.6 3.3 3.8 2.5 0.1 0.0 1.2 0.4 0.2 0.0 0.0 0.0 0.0 0.0 0.0 0.0 0.0 0.0 0.0 0.0 0.0 0.0
0.0 0.0 0.0 0.0 0.0 0.2 4.0 12.1 5.7 3.7 0.0 4.4 1.2 1.2 5.6 0.0 0.0 0.0 0.0 0.0 0.0 0.0 0.0 0.1 0.0 0.4 0.8
0.0 0.0 0.0 0.0 0.1 0.1 1.6 9.9 15.4 9.4 0.0 8.8 10.8 2.3 8.1 3.6 2.5 2.5 1.7 1.1 1.5 2.0 1.9 1.2 0.9 1.0 3.0
0.2 0.2 0.2 0.3 0.2 0.3 0.4 1.7 3.6 8.9 3.2 4.6 19.0 7.0 12.6 9.1 5.3 5.9 4.4 5.3 7.5 8.0 9.3 2.5 1.0 0.6 0.4
1.1 0.5 0.2 0.1 0.4 0.6 0.8 1.3 2.0 2.9 3.8 4.1 9.5 9.8 13.0 12.7 8.0 5.3 7.5 6.9 6.5 7.7 6.4 6.5 5.0 3.2 2.4
2.5 0.7 0.1 0.5 0.8 1.4 4.8 3.4 5.4 3.3 3.9 4.8 7.0 9.2 11.3 7.1 8.5 7.5 7.3 11.8 8.5 7.3 5.9 6.7 2.0 1.4 0.7
2.3 2.2 0.9 0.7 2.8 3.1 5.8 9.3 13.0 8.1 8.2 6.8 5.4 3.5 4.3 6.5 8.4 6.5 7.6 7.9 9.4 8.4 6.1 8.8 5.4 1.1 0.3
2.9 2.1 5.5 5.3 7.2 7.7 9.6 12.7 13.4 10.0 10.8 9.4 8.5 8.5 7.8 6.9 6.1 11.5 9.4 10.4 10.4 7.8 5.9 8.0 8.3 3.8 0.1
5.3 6.0 8.5 7.5 8.1 9.4 10.2 11.1 11.7 8.9 7.7 6.1 8.7 12.2 15.2 8.5 6.2 5.5 16.3 12.8 9.5 8.7 5.5 5.5 8.1 6.6 0.6

GFSFLT2_prec_kuchsnow_204.txt.gz
Snowfall_Accumulation
0.1 0.5 0.3 0.0 0.0 0.0 0.0 0.0 0.0 0.0 0.0 0.0 0.0 0.0 0.0 0.0 0.0 0.0 0.0 0.0 0.0 0.0 0.0 0.0 0.0 0.0 0.0
0.6 0.3 0.1 0.0 0.0 0.0 0.0 0.1 0.0 0.0 0.0 0.0 0.0 0.0 0.0 0.0 0.0 0.0 0.0 0.0 0.0 0.0 0.0 0.0 0.0 0.0 0.0
0.2 0.0 0.0 0.6 0.0 0.0 0.0 0.0 0.0 0.0 0.0 0.0 0.0 0.0 0.0 0.0 0.0 0.0 0.0 0.0 0.0 0.0 0.0 0.0 0.0 0.0 0.0
0.4 0.7 0.3 0.0 0.2 0.0 0.0 0.0 0.0 0.0 0.0 0.0 0.0 0.0 0.0 0.0 0.0 0.0 0.0 0.0 0.0 0.0 0.0 0.0 0.0 0.0 0.0
2.2 2.2 0.1 0.0 0.0 0.0 0.0 0.0 0.2 0.0 0.0 0.0 0.0 0.0 0.0 0.0 0.0 0.0 0.0 0.0 0.0 0.0 0.0 0.0 0.0 0.0 0.0
3.0 0.5 0.0 0.0 0.0 0.1 2.0 2.1 1.7 0.0 0.0 0.1 0.0 0.0 0.0 0.0 0.0 0.0 0.0 0.0 0.0 0.0 0.0 0.0 0.0 0.0 0.0
0.3 0.2 0.3 0.1 3.0 3.6 1.4 2.1 1.2 0.0 0.2 0.4 0.0 0.0 0.0 0.0 0.0 0.0 0.0 0.0 0.0 0.0 0.0 0.0 0.0 0.0 0.0
0.0 0.2 0.7 0.2 0.3 0.7 1.0 1.1 0.5 0.0 0.0 2.4 0.0 0.1 0.0 0.0 0.0 0.0 0.0 0.0 0.0 0.0 0.0 0.0 0.0 0.0 0.0
0.2 0.1 0.0 0.0 0.0 1.6 3.3 3.8 2.5 0.1 0.0 1.2 0.4 0.2 0.0 0.0 0.0 0.0 0.0 0.0 0.0 0.0 0.0 0.0 0.0 0.0 0.0
0.0 0.0 0.0 0.0 0.0 0.2 4.0 12.1 5.7 3.7 0.0 4.4 1.2 1.2 5.6 0.0 0.0 0.0 0.0 0.0 0.0 0.0 0.0 0.1 0.0 0.4 0.8
0.0 0.0 0.0 0.0 0.1 0.1 1.6 9.9 15.4 9.4 0.0 8.8 10.8 2.3 8.1 3.6 2.5 2.5 1.7 1.1 1.5 2.0 1.9 1.2 0.9 1.0 3.0
0.2 0.2 0.2 0.3 0.2 0.3 0.4 1.7 3.6 8.9 3.2 4.6 19.0 7.0 12.6 9.1 5.3 5.9 4.4 5.3 7.5 8.0 9.3 2.5 1.0 0.6 0.4
1.2 0.6 0.2 0.1 0.4 0.6 0.8 1.3 2.0 2.9 3.8 4.1 9.5 9.8 13.0 12.7 8.0 5.3 7.5 6.9 6.5 7.7 6.4 6.5 5.0 3.2 2.4
2.5 0.7 0.1 0.5 0.8 1.4 4.8 3.4 5.5 3.4 3.9 4.8 7.0 9.2 11.3 7.1 8.6 7.5 7.3 11.8 8.5 7.3 5.9 6.7 2.0 1.4 0.7
2.4 2.2 0.9 0.7 2.8 3.1 5.8 9.3 13.0 8.1 8.2 6.8 5.4 3.5 4.3 6.5 8.4 6.5 7.6 7.9 9.4 8.4 6.1 8.8 5.4 1.1 0.3
2.9 2.1 5.5 5.4 7.2 7.7 9.6 12.7 13.4 10.0 10.8 9.4 8.5 8.5 7.8 6.9 6.1 11.5 9.4 10.4 10.4 7.8 5.9 8.0 8.3 3.8 0.1
5.3 6.0 8.5 7.5 8.1 9.4 10.2 11.1 11.8 8.9 7.7 6.1 8.8 12.3 15.4 8.5 6.2 5.5 16.3 12.8 9.5 8.7 5.5 5.5 8.1 6.6 0.6

GFSFLT2_prec_kuchsnow_210.txt.gz
Snowfall_Accumulation
0.1 0.5 0.3 0.0 0.0 0.0 0.0 0.0 0.0 0.0 0.0 0.0 0.0 0.0 0.0 0.0 0.0 0.0 0.0 0.0 0.0 0.0 0.0 0.0 0.0 0.0 0.0
0.6 0.3 0.1 0.0 0.0 0.0 0.0 0.1 0.0 0.0 0.0 0.0 0.0 0.0 0.0 0.0 0.0 0.0 0.0 0.0 0.0 0.0 0.0 0.0 0.0 0.0 0.0
0.2 0.0 0.0 0.6 0.0 0.0 0.0 0.0 0.0 0.0 0.0 0.0 0.0 0.0 0.0 0.0 0.0 0.0 0.0 0.0 0.0 0.0 0.0 0.0 0.0 0.0 0.0
0.4 0.7 0.3 0.0 0.2 0.0 0.0 0.0 0.0 0.0 0.0 0.0 0.0 0.0 0.0 0.0 0.0 0.0 0.0 0.0 0.0 0.0 0.0 0.0 0.0 0.0 0.0
2.2 2.2 0.1 0.0 0.0 0.0 0.0 0.0 0.2 0.0 0.0 0.0 0.0 0.0 0.0 0.0 0.0 0.0 0.0 0.0 0.0 0.0 0.0 0.0 0.0 0.0 0.0
3.1 0.6 0.0 0.0 0.0 0.1 2.0 2.1 1.7 0.0 0.0 0.1 0.0 0.0 0.0 0.0 0.0 0.0 0.0 0.0 0.0 0.0 0.0 0.0 0.0 0.0 0.0
0.4 0.3 0.4 0.2 3.0 3.6 1.4 2.1 1.2 0.0 0.2 0.4 0.0 0.0 0.0 0.0 0.0 0.0 0.0 0.0 0.0 0.0 0.0 0.0 0.0 0.0 0.0
0.0 0.2 0.7 0.2 0.3 0.7 1.0 1.1 0.5 0.0 0.0 2.4 0.0 0.1 0.0 0.0 0.0 0.0 0.0 0.0 0.0 0.0 0.0 0.0 0.0 0.0 0.0
0.2 0.1 0.0 0.0 0.0 1.6 3.4 3.8 2.5 0.1 0.0 1.2 0.4 0.2 0.0 0.0 0.0 0.0 0.0 0.0 0.0 0.0 0.0 0.0 0.0 0.0 0.0
0.0 0.0 0.0 0.0 0.0 0.2 4.0 12.4 5.8 3.7 0.0 4.4 1.2 1.3 5.6 0.0 0.0 0.0 0.0 0.0 0.0 0.0 0.0 0.1 0.0 0.4 0.8
0.0 0.0 0.0 0.0 0.1 0.1 1.6 9.9 15.7 9.4 0.0 8.9 10.8 2.4 8.1 3.6 2.5 2.5 1.7 1.1 1.5 2.0 1.9 1.2 0.9 1.0 3.0
0.3 0.3 0.2 0.3 0.2 0.3 0.4 1.7 3.6 8.9 3.2 4.6 19.1 7.0 12.6 9.1 5.3 5.9 4.4 5.3 7.5 8.0 9.3 2.5 1.0 0.6 0.4
1.2 0.6 0.2 0.1 0.4 0.6 0.8 1.3 2.0 2.9 3.8 4.1 9.5 9.8 13.0 12.7 8.0 5.3 7.5 6.9 6.5 7.7 6.4 6.5 5.0 3.2 2.4
2.5 0.7 0.1 0.5 0.9 1.4 4.8 3.5 5.6 3.4 3.9 4.8 7.0 9.2 11.3 7.1 8.6 7.5 7.3 11.8 8.5 7.3 5.9 6.7 2.0 1.4 0.7
2.4 2.3 0.9 0.8 2.8 3.1 5.9 9.4 13.2 8.1 8.2 6.8 5.4 3.5 4.3 6.5 8.4 6.5 7.6 7.9 9.4 8.4 6.1 8.8 5.4 1.1 0.3
3.2 2.4 5.8 5.6 7.3 7.8 9.9 12.8 13.4 10.0 10.8 9.4 8.5 8.5 7.8 6.9 6.1 11.5 9.4 10.4 10.4 7.8 5.9 8.0 8.3 3.8 0.1
5.4 6.2 8.8 7.7 8.2 9.5 10.4 11.3 11.9 8.9 7.7 6.1 8.8 12.5 15.6 8.6 6.2 5.5 16.3 12.8 9.5 8.7 5.5 5.5 8.1 6.6 0.6

GFSFLT2_prec_kuchsnow_213.txt.gz
Snowfall_Accumulation
0.1 0.5 0.3 0.0 0.0 0.0 0.0 0.0 0.0 0.0 0.0 0.0 0.0 0.0 0.0 0.0 0.0 0.0 0.0 0.0 0.0 0.0 0.0 0.0 0.0 0.0 0.0
0.6 0.3 0.1 0.0 0.0 0.0 0.0 0.1 0.0 0.0 0.0 0.0 0.0 0.0 0.0 0.0 0.0 0.0 0.0 0.0 0.0 0.0 0.0 0.0 0.0 0.0 0.0
0.2 0.0 0.0 0.6 0.0 0.0 0.0 0.0 0.0 0.0 0.0 0.0 0.0 0.0 0.0 0.0 0.0 0.0 0.0 0.0 0.0 0.0 0.0 0.0 0.0 0.0 0.0
0.4 0.7 0.3 0.0 0.2 0.0 0.0 0.0 0.0 0.0 0.0 0.0 0.0 0.0 0.0 0.0 0.0 0.0 0.0 0.0 0.0 0.0 0.0 0.0 0.0 0.0 0.0
2.2 2.2 0.1 0.0 0.0 0.0 0.0 0.0 0.2 0.0 0.0 0.0 0.0 0.0 0.0 0.0 0.0 0.0 0.0 0.0 0.0 0.0 0.0 0.0 0.0 0.0 0.0
3.1 0.6 0.0 0.0 0.0 0.1 2.0 2.1 1.8 0.0 0.0 0.1 0.0 0.0 0.0 0.0 0.0 0.0 0.0 0.0 0.0 0.0 0.0 0.0 0.0 0.0 0.0
0.4 0.3 0.4 0.2 3.0 3.6 1.7 2.5 1.6 0.0 0.2 0.4 0.0 0.0 0.0 0.0 0.0 0.0 0.0 0.0 0.0 0.0 0.0 0.0 0.0 0.0 0.0
0.0 0.2 0.7 0.2 0.3 0.7 1.0 1.1 0.5 0.0 0.0 2.4 0.0 0.1 0.0 0.0 0.0 0.0 0.0 0.0 0.0 0.0 0.0 0.0 0.0 0.0 0.0
0.2 0.1 0.0 0.0 0.0 1.6 3.8 4.6 3.1 0.1 0.0 1.2 0.4 0.2 0.0 0.0 0.0 0.0 0.0 0.0 0.0 0.0 0.0 0.0 0.0 0.0 0.0
0.0 0.0 0.0 0.0 0.0 0.2 4.1 12.8 6.1 3.9 0.0 4.4 1.2 1.3 5.6 0.0 0.0 0.0 0.0 0.0 0.0 0.0 0.0 0.1 0.0 0.4 0.8
0.0 0.1 0.0 0.0 0.1 0.1 1.6 10.0 15.9 9.6 0.0 8.9 10.8 2.4 8.1 3.6 2.5 2.5 1.7 1.1 1.5 2.0 1.9 1.2 0.9 1.0 3.0
0.3 0.3 0.2 0.3 0.2 0.3 0.4 1.7 3.6 8.9 3.2 4.6 19.1 7.0 12.6 9.1 5.3 5.9 4.4 5.3 7.5 8.0 9.3 2.5 1.0 0.6 0.4
1.3 0.6 0.2 0.1 0.4 0.6 0.8 1.3 2.0 2.9 3.8 4.1 9.5 9.8 13.0 12.7 8.0 5.3 7.5 6.9 6.5 7.7 6.4 6.5 5.0 3.2 2.4
2.8 0.7 0.1 0.5 0.9 1.4 4.8 3.5 5.6 3.4 3.9 4.8 7.0 9.2 11.3 7.1 8.6 7.5 7.3 11.8 8.5 7.3 5.9 6.7 2.0 1.4 0.7
2.4 2.3 0.9 0.8 2.8 3.1 6.0 9.4 13.3 8.1 8.2 6.8 5.4 3.5 4.3 6.5 8.5 6.5 7.6 7.9 9.4 8.4 6.1 8.8 5.4 1.1 0.3
3.2 2.4 5.8 5.6 7.4 7.9 9.9 12.9 13.6 10.0 10.8 9.4 8.5 8.5 7.8 6.9 6.1 11.5 9.4 10.4 10.4 7.8 5.9 8.0 8.3 3.8 0.1
5.4 6.2 8.8 7.7 8.2 9.5 10.4 11.4 11.9 8.9 7.7 6.1 8.8 12.5 15.7 8.6 6.2 5.5 16.3 12.8 9.5 8.7 5.5 5.5 8.1 6.6 0.6

GFSFLT2_prec_kuchsnow_216.txt.gz
Snowfall_Accumulation
0.1 0.5 0.3 0.0 0.0 0.0 0.0 0.0 0.0 0.0 0.0 0.0 0.0 0.0 0.0 0.0 0.0 0.0 0.0 0.0 0.0 0.0 0.0 0.0 0.0 0.0 0.0
0.6 0.3 0.1 0.0 0.0 0.0 0.0 0.1 0.0 0.0 0.0 0.0 0.0 0.0 0.0 0.0 0.0 0.0 0.0 0.0 0.0 0.0 0.0 0.0 0.0 0.0 0.0
0.2 0.0 0.0 0.6 0.0 0.0 0.0 0.0 0.0 0.0 0.0 0.0 0.0 0.0 0.0 0.0 0.0 0.0 0.0 0.0 0.0 0.0 0.0 0.0 0.0 0.0 0.0
0.4 0.7 0.3 0.0 0.2 0.0 0.0 0.0 0.0 0.0 0.0 0.0 0.0 0.0 0.0 0.0 0.0 0.0 0.0 0.0 0.0 0.0 0.0 0.0 0.0 0.0 0.0
2.2 2.2 0.1 0.0 0.0 0.0 0.0 0.0 0.2 0.0 0.0 0.0 0.0 0.0 0.0 0.0 0.0 0.0 0.0 0.0 0.0 0.0 0.0 0.0 0.0 0.0 0.0
3.1 0.6 0.0 0.0 0.0 0.1 2.0 2.1 1.8 0.0 0.0 0.1 0.0 0.0 0.0 0.0 0.0 0.0 0.0 0.0 0.0 0.0 0.0 0.0 0.0 0.0 0.0
0.5 0.3 0.4 0.2 3.0 3.6 1.7 2.5 1.6 0.0 0.2 0.4 0.0 0.0 0.0 0.0 0.0 0.0 0.0 0.0 0.0 0.0 0.0 0.0 0.0 0.0 0.0
0.0 0.2 0.7 0.2 0.3 0.7 1.0 1.1 0.5 0.0 0.0 2.9 0.0 0.1 0.0 0.0 0.0 0.0 0.0 0.0 0.0 0.0 0.0 0.0 0.0 0.0 0.0
0.2 0.1 0.0 0.0 0.0 1.6 4.1 4.9 3.1 0.1 0.0 1.3 0.4 0.2 0.0 0.0 0.0 0.0 0.0 0.0 0.0 0.0 0.0 0.0 0.0 0.0 0.0
0.1 0.0 0.0 0.0 0.0 0.2 4.2 13.2 6.4 3.9 0.0 4.5 1.2 1.3 5.6 0.0 0.0 0.0 0.0 0.0 0.0 0.0 0.0 0.1 0.0 0.4 0.8
0.0 0.1 0.0 0.0 0.1 0.1 1.6 10.0 16.2 9.6 0.0 9.0 11.0 2.4 8.1 3.6 2.5 2.5 1.7 1.1 1.5 2.0 1.9 1.2 0.9 1.0 3.0
0.3 0.3 0.2 0.3 0.2 0.3 0.4 1.7 3.6 8.9 3.2 4.6 19.5 7.0 12.7 9.1 5.3 5.9 4.4 5.3 7.5 8.0 9.3 2.5 1.0 0.6 0.4
1.3 0.6 0.2 0.1 0.4 0.6 0.8 1.3 2.0 2.9 3.8 4.1 9.5 9.8 13.1 12.7 8.0 5.3 7.5 6.9 6.5 7.7 6.4 6.5 5.0 3.2 2.4
2.8 0.7 0.1 0.5 0.9 1.4 4.8 3.5 5.6 3.4 3.9 4.8 7.0 9.2 11.3 7.1 8.6 7.5 7.3 11.8 8.5 7.3 5.9 6.7 2.0 1.4 0.7
2.5 2.4 0.9 0.8 2.8 3.1 6.0 9.5 13.4 8.1 8.2 6.8 5.4 3.5 4.3 6.5 8.5 6.5 7.6 7.9 9.4 8.4 6.1 8.8 5.4 1.1 0.3
3.3 2.4 5.9 5.6 7.4 7.9 9.9 13.0 13.7 10.0 10.8 9.4 8.5 8.6 7.8 6.9 6.1 11.5 9.4 10.4 10.4 7.8 5.9 8.0 8.3 3.8 0.1
5.4 6.2 8.9 7.8 8.2 9.5 10.4 11.5 12.0 8.9 7.7 6.1 8.8 12.7 16.1 8.6 6.2 5.5 16.3 12.8 9.5 8.7 5.5 5.5 8.1 6.6 0.6

GFSFLT2_prec_kuchsnow_219.txt.gz
Snowfall_Accumulation
0.1 0.5 0.3 0.0 0.0 0.0 0.0 0.0 0.0 0.0 0.0 0.0 0.0 0.0 0.0 0.0 0.0 0.0 0.0 0.0 0.0 0.0 0.0 0.0 0.0 0.0 0.0
0.6 0.3 0.1 0.0 0.0 0.0 0.0 0.1 0.0 0.0 0.0 0.0 0.0 0.0 0.0 0.0 0.0 0.0 0.0 0.0 0.0 0.0 0.0 0.0 0.0 0.0 0.0
0.2 0.0 0.0 0.6 0.0 0.0 0.0 0.0 0.0 0.0 0.0 0.0 0.0 0.0 0.0 0.0 0.0 0.0 0.0 0.0 0.0 0.0 0.0 0.0 0.0 0.0 0.0
0.4 0.7 0.3 0.0 0.2 0.0 0.0 0.0 0.0 0.0 0.0 0.0 0.0 0.0 0.0 0.0 0.0 0.0 0.0 0.0 0.0 0.0 0.0 0.0 0.0 0.0 0.0
2.3 2.2 0.1 0.0 0.0 0.0 0.0 0.0 0.2 0.0 0.0 0.0 0.0 0.0 0.0 0.0 0.0 0.0 0.0 0.0 0.0 0.0 0.0 0.0 0.0 0.0 0.0
3.2 0.6 0.0 0.0 0.0 0.1 2.0 2.1 1.8 0.0 0.0 0.1 0.0 0.0 0.0 0.0 0.0 0.0 0.0 0.0 0.0 0.0 0.0 0.0 0.0 0.0 0.0
0.6 0.3 0.4 0.2 3.0 3.6 1.7 2.5 1.6 0.0 0.2 0.4 0.0 0.0 0.0 0.0 0.0 0.0 0.0 0.0 0.0 0.0 0.0 0.0 0.0 0.0 0.0
0.0 0.2 0.7 0.3 0.4 0.8 1.1 1.1 0.6 0.0 0.0 3.0 0.0 0.1 0.0 0.0 0.0 0.0 0.0 0.0 0.0 0.0 0.0 0.0 0.0 0.0 0.0
0.2 0.1 0.0 0.0 0.0 1.6 4.1 5.5 3.5 0.1 0.0 1.3 0.4 0.2 0.0 0.0 0.0 0.0 0.0 0.0 0.0 0.0 0.0 0.0 0.0 0.0 0.0
0.1 0.0 0.0 0.0 0.0 0.2 4.3 13.6 6.7 3.9 0.0 4.5 1.2 1.3 5.7 0.0 0.0 0.0 0.0 0.0 0.0 0.0 0.0 0.1 0.0 0.4 0.8
0.0 0.1 0.0 0.0 0.1 0.1 1.6 10.2 16.7 9.9 0.0 9.2 11.3 2.4 8.4 3.7 2.5 2.5 1.7 1.1 1.5 2.0 1.9 1.2 0.9 1.0 3.0
0.3 0.3 0.2 0.3 0.2 0.3 0.4 1.7 3.6 9.1 3.2 4.6 19.8 7.1 12.8 9.2 5.3 5.9 4.4 5.3 7.5 8.0 9.3 2.5 1.0 0.6 0.4
1.4 0.6 0.2 0.1 0.4 0.6 0.8 1.3 2.0 2.9 3.8 4.1 9.6 9.9 13.4 13.1 8.1 5.3 7.5 6.9 6.5 7.7 6.4 6.5 5.0 3.2 2.4
2.9 0.7 0.1 0.5 0.9 1.4 4.9 3.5 5.7 3.4 3.9 4.8 7.0 9.2 11.5 7.2 8.6 7.5 7.3 11.8 8.5 7.3 5.9 6.7 2.0 1.4 0.7
2.5 2.4 0.9 0.9 2.8 3.1 6.0 9.5 13.7 8.1 8.2 6.8 5.4 3.6 4.5 6.7 8.6 6.5 7.6 7.9 9.4 8.4 6.1 8.8 5.4 1.1 0.3
3.3 2.4 6.0 5.6 7.5 7.9 9.9 13.1 13.9 10.0 10.9 9.4 8.5 8.9 7.8 6.9 6.1 11.5 9.4 10.4 10.4 7.8 5.9 8.0 8.3 3.8 0.1
5.5 6.3 8.9 7.8 8.2 9.5 10.4 11.5 12.1 8.9 7.7 6.1 8.8 13.0 16.7 8.8 6.2 5.5 16.3 12.8 9.5 8.7 5.5 5.5 8.1 6.6 0.6

GFSFLT2_prec_kuchsnow_225.txt.gz
Snowfall_Accumulation
0.1 0.5 0.3 0.0 0.0 0.0 0.0 0.0 0.0 0.0 0.0 0.0 0.0 0.0 0.0 0.0 0.0 0.0 0.0 0.0 0.0 0.0 0.0 0.0 0.0 0.0 0.0
0.6 0.3 0.1 0.0 0.0 0.0 0.0 0.1 0.0 0.0 0.0 0.0 0.0 0.0 0.0 0.0 0.0 0.0 0.0 0.0 0.0 0.0 0.0 0.0 0.0 0.0 0.0
0.2 0.0 0.0 0.6 0.0 0.0 0.0 0.0 0.0 0.0 0.0 0.0 0.0 0.0 0.0 0.0 0.0 0.0 0.0 0.0 0.0 0.0 0.0 0.0 0.0 0.0 0.0
0.4 0.7 0.3 0.0 0.2 0.0 0.0 0.0 0.0 0.0 0.0 0.0 0.0 0.0 0.0 0.0 0.0 0.0 0.0 0.0 0.0 0.0 0.0 0.0 0.0 0.0 0.0
2.3 2.2 0.1 0.0 0.0 0.0 0.0 0.0 0.2 0.0 0.0 0.0 0.0 0.0 0.0 0.0 0.0 0.0 0.0 0.0 0.0 0.0 0.0 0.0 0.0 0.0 0.0
3.4 0.6 0.0 0.0 0.0 0.1 2.0 2.2 1.9 0.0 0.0 0.1 0.0 0.0 0.0 0.0 0.0 0.0 0.0 0.0 0.0 0.0 0.0 0.0 0.0 0.0 0.0
0.6 0.3 0.4 0.2 3.0 3.8 1.9 2.8 1.9 0.0 0.2 0.5 0.0 0.0 0.0 0.0 0.0 0.0 0.0 0.0 0.0 0.0 0.0 0.0 0.0 0.0 0.0
0.0 0.2 0.7 0.3 0.4 0.9 1.5 1.2 0.7 0.0 0.1 3.4 0.0 0.1 0.0 0.0 0.0 0.0 0.0 0.0 0.0 0.0 0.0 0.0 0.0 0.0 0.0
0.2 0.1 0.0 0.0 0.0 1.6 4.1 5.9 3.8 0.1 0.0 1.3 0.4 0.2 0.0 0.0 0.0 0.0 0.0 0.0 0.0 0.0 0.0 0.0 0.0 0.0 0.0
0.1 0.0 0.0 0.0 0.0 0.2 4.4 14.4 7.3 4.2 0.0 4.8 1.3 1.5 6.0 0.0 0.0 0.0 0.0 0.0 0.0 0.0 0.0 0.1 0.0 0.4 0.8
0.0 0.1 0.0 0.0 0.1 0.1 1.6 10.5 17.4 10.7 0.0 9.6 12.0 2.7 8.8 3.8 2.5 2.5 1.7 1.1 1.5 2.0 1.9 1.2 0.9 1.0 3.0
0.3 0.3 0.2 0.3 0.2 0.3 0.4 1.7 3.6 9.5 3.2 4.7 20.7 7.7 13.5 9.7 5.4 5.9 4.4 5.3 7.5 8.0 9.3 2.5 1.0 0.6 0.4
1.4 0.6 0.2 0.1 0.4 0.6 0.8 1.3 2.0 2.9 3.8 4.1 9.7 10.2 14.0 14.0 8.4 5.3 7.5 6.9 6.5 7.7 6.4 6.5 5.0 3.2 2.4
2.9 0.7 0.1 0.5 0.9 1.4 4.9 3.5 5.9 3.4 3.9 4.8 7.0 9.6 12.3 7.6 8.9 7.7 7.3 11.9 8.5 7.3 5.9 6.7 2.0 1.4 0.7
2.5 2.4 0.9 0.9 2.8 3.1 6.0 9.7 14.0 8.1 8.2 6.8 5.4 3.6 4.7 7.1 9.4 6.5 7.6 7.9 9.4 8.4 6.1 8.8 5.4 1.1 0.3
3.3 2.4 6.2 5.8 7.6 7.9 9.9 13.1 14.2 10.1 10.9 9.4 8.5 9.0 7.8 6.9 6.1 11.5 9.4 10.4 10.4 7.8 5.9 8.0 8.3 3.8 0.1
5.5 6.5 9.0 8.0 8.2 9.6 10.4 11.6 12.2 8.9 7.7 6.1 9.0 13.7 17.5 8.9 6.2 5.5 16.4 12.8 9.5 8.7 5.5 5.5 8.1 6.6 0.6

GFSFLT2_prec_kuchsnow_228.txt.gz
Snowfall_Accumulation
0.1 0.5 0.3 0.0 0.0 0.0 0.0 0.0 0.0 0.0 0.0 0.0 0.0 0.0 0.0 0.0 0.0 0.0 0.0 0.0 0.0 0.0 0.0 0.0 0.0 0.0 0.0
0.6 0.3 0.1 0.0 0.0 0.0 0.0 0.1 0.0 0.0 0.0 0.0 0.0 0.0 0.0 0.0 0.0 0.0 0.0 0.0 0.0 0.0 0.0 0.0 0.0 0.0 0.0
0.2 0.0 0.0 0.6 0.0 0.0 0.0 0.0 0.0 0.0 0.0 0.0 0.0 0.0 0.0 0.0 0.0 0.0 0.0 0.0 0.0 0.0 0.0 0.0 0.0 0.0 0.0
0.4 0.7 0.3 0.0 0.2 0.0 0.0 0.0 0.0 0.0 0.0 0.0 0.0 0.0 0.0 0.0 0.0 0.0 0.0 0.0 0.0 0.0 0.0 0.0 0.0 0.0 0.0
2.3 2.2 0.1 0.0 0.0 0.0 0.0 0.0 0.2 0.0 0.0 0.0 0.0 0.0 0.0 0.0 0.0 0.0 0.0 0.0 0.0 0.0 0.0 0.0 0.0 0.0 0.0
3.4 0.6 0.0 0.0 0.0 0.1 2.1 2.2 1.9 0.0 0.0 0.1 0.0 0.0 0.0 0.0 0.0 0.0 0.0 0.0 0.0 0.0 0.0 0.0 0.0 0.0 0.0
0.6 0.3 0.4 0.2 3.1 3.8 1.9 2.8 1.9 0.0 0.2 0.5 0.0 0.0 0.0 0.0 0.0 0.0 0.0 0.0 0.0 0.0 0.0 0.0 0.0 0.0 0.0
0.0 0.2 0.7 0.3 0.4 0.9 1.5 1.2 0.7 0.0 0.1 3.5 0.0 0.1 0.0 0.0 0.0 0.0 0.0 0.0 0.0 0.0 0.0 0.0 0.0 0.0 0.0
0.2 0.1 0.0 0.0 0.0 1.6 4.1 6.0 3.9 0.1 0.0 1.3 0.4 0.2 0.0 0.0 0.0 0.0 0.0 0.0 0.0 0.0 0.0 0.0 0.0 0.0 0.0
0.1 0.0 0.0 0.0 0.0 0.2 4.4 14.5 7.4 4.4 0.0 4.8 1.4 1.5 6.1 0.0 0.0 0.0 0.0 0.0 0.0 0.0 0.0 0.1 0.0 0.4 0.8
0.0 0.1 0.0 0.0 0.1 0.1 1.6 10.5 17.6 10.9 0.0 9.7 12.3 2.8 9.0 3.9 2.5 2.5 1.7 1.1 1.5 2.0 1.9 1.2 0.9 1.0 3.0
0.3 0.3 0.2 0.3 0.2 0.3 0.4 1.7 3.6 9.5 3.2 4.7 20.9 7.9 13.8 9.9 5.5 5.9 4.4 5.3 7.5 8.0 9.3 2.5 1.0 0.6 0.4
1.4 0.6 0.2 0.1 0.4 0.6 0.8 1.3 2.0 2.9 3.8 4.1 9.8 10.3 14.3 14.2 8.5 5.4 7.6 6.9 6.5 7.7 6.4 6.5 5.0 3.2 2.4
3.0 0.7 0.1 0.5 0.9 1.4 4.9 3.6 5.9 3.4 3.9 4.8 7.0 9.6 12.6 7.7 9.0 7.9 7.4 12.0 8.5 7.3 5.9 6.7 2.0 1.4 0.7
2.6 2.4 0.9 0.9 2.8 3.1 6.0 9.8 14.1 8.2 8.2 6.8 5.4 3.6 4.7 7.2 9.5 6.6 7.6 7.9 9.4 8.4 6.1 8.8 5.4 1.1 0.3
3.3 2.5 6.2 5.8 7.7 8.0 9.9 13.2 14.3 10.2 10.9 9.5 8.6 9.1 7.9 6.9 6.1 11.6 9.6 10.5 10.4 7.8 6.0 8.1 8.3 3.8 0.1
5.6 6.5 9.1 8.0 8.2 9.6 10.4 11.7 12.3 9.0 7.8 6.1 9.1 14.0 18.0 9.0 6.2 5.5 16.4 12.9 9.6 8.8 5.5 5.6 8.1 6.6 0.6

GFSFLT2_prec_kuchsnow_231.txt.gz
Snowfall_Accumulation
0.1 0.5 0.3 0.0 0.0 0.0 0.0 0.0 0.0 0.0 0.0 0.0 0.0 0.0 0.0 0.0 0.0 0.0 0.0 0.0 0.0 0.0 0.0 0.0 0.0 0.0 0.0
0.6 0.3 0.1 0.0 0.0 0.0 0.0 0.1 0.0 0.0 0.0 0.0 0.0 0.0 0.0 0.0 0.0 0.0 0.0 0.0 0.0 0.0 0.0 0.0 0.0 0.0 0.0
0.2 0.0 0.0 0.6 0.0 0.0 0.0 0.0 0.0 0.0 0.0 0.0 0.0 0.0 0.0 0.0 0.0 0.0 0.0 0.0 0.0 0.0 0.0 0.0 0.0 0.0 0.0
0.4 0.7 0.3 0.0 0.2 0.0 0.0 0.0 0.0 0.0 0.0 0.0 0.0 0.0 0.0 0.0 0.0 0.0 0.0 0.0 0.0 0.0 0.0 0.0 0.0 0.0 0.0
2.3 2.2 0.1 0.0 0.0 0.0 0.0 0.0 0.2 0.0 0.0 0.0 0.0 0.0 0.0 0.0 0.0 0.0 0.0 0.0 0.0 0.0 0.0 0.0 0.0 0.0 0.0
3.4 0.6 0.0 0.0 0.0 0.1 2.1 2.2 1.9 0.0 0.0 0.1 0.0 0.0 0.0 0.0 0.0 0.0 0.0 0.0 0.0 0.0 0.0 0.0 0.0 0.0 0.0
0.6 0.3 0.4 0.2 3.1 3.8 1.9 2.9 1.9 0.0 0.2 0.5 0.0 0.0 0.0 0.0 0.0 0.0 0.0 0.0 0.0 0.0 0.0 0.0 0.0 0.0 0.0
0.0 0.2 0.7 0.3 0.4 0.9 1.5 1.2 0.7 0.0 0.1 3.5 0.0 0.1 0.0 0.0 0.0 0.0 0.0 0.0 0.0 0.0 0.0 0.0 0.0 0.0 0.0
0.2 0.1 0.0 0.0 0.0 1.6 4.1 6.1 3.9 0.1 0.0 1.3 0.4 0.2 0.0 0.0 0.0 0.0 0.0 0.0 0.0 0.0 0.0 0.0 0.0 0.0 0.0
0.1 0.0 0.0 0.0 0.0 0.2 4.4 14.6 7.5 4.4 0.0 4.9 1.4 1.6 6.3 0.0 0.0 0.0 0.0 0.0 0.0 0.0 0.0 0.1 0.0 0.4 0.8
0.0 0.1 0.0 0.0 0.1 0.1 1.6 10.5 17.8 11.0 0.0 9.8 12.4 2.8 9.2 4.0 2.5 2.5 1.7 1.1 1.5 2.0 1.9 1.2 0.9 1.0 3.0
0.3 0.3 0.2 0.3 0.2 0.3 0.4 1.7 3.6 9.5 3.2 4.7 21.1 8.2 14.2 10.1 5.6 5.9 4.4 5.3 7.5 8.0 9.3 2.5 1.0 0.6 0.4
1.4 0.6 0.2 0.1 0.4 0.6 0.8 1.3 2.0 2.9 3.8 4.1 9.8 10.3 14.5 14.5 8.7 5.4 7.7 6.9 6.5 7.7 6.5 6.5 5.1 3.2 2.5
3.0 0.7 0.1 0.5 0.9 1.4 4.9 3.6 5.9 3.4 3.9 4.8 7.0 9.6 12.7 7.8 9.2 8.0 7.4 12.1 8.5 7.3 5.9 6.7 2.0 1.4 0.7
2.6 2.4 0.9 0.9 2.8 3.1 6.0 9.8 14.2 8.2 8.2 6.8 5.4 3.6 4.7 7.3 9.7 6.6 7.6 7.9 9.4 8.4 6.1 8.9 5.4 1.1 0.3
3.3 2.5 6.2 5.8 7.7 8.0 10.0 13.3 14.5 10.2 10.9 9.5 8.6 9.2 7.9 6.9 6.1 11.6 9.6 10.5 10.4 7.8 6.1 8.4 8.4 3.8 0.1
5.6 6.5 9.2 8.0 8.3 9.7 10.5 11.8 12.4 9.0 7.8 6.1 9.2 14.2 18.5 9.2 6.2 5.5 16.5 13.0 9.6 8.8 5.5 5.6 8.1 6.6 0.6